This is the latest recevied weather packets stored in our database for station/object 9M4RBN-3. If no packets are shown the sender has not sent any weather packets the latest 10 day(s).
| Time | Temp. | Humidity | Pressure | Rain* | Wind** | Luminosity | Snow |
|---|---|---|---|---|---|---|---|
| 1777621893 | 26.67° C | 45% | 1013.5 hPa | - | - | - | - |
| 1777620993 | 26.67° C | 46% | 1013.7 hPa | - | - | - | - |
| 1777620093 | 26.67° C | 47% | 1014.4 hPa | - | - | - | - |
| 1777619193 | 26.67° C | 49% | 1013.4 hPa | - | - | - | - |
| 1777618292 | 26.67° C | 50% | 1014.2 hPa | - | - | - | - |
| 1777617392 | 26.67° C | 52% | 1013.9 hPa | - | - | - | - |
| 1777616492 | 26.67° C | 52% | 1014 hPa | - | - | - | - |
| 1777615593 | 26.67° C | 51% | 1014.2 hPa | - | - | - | - |
| 1777614692 | 26.67° C | 51% | 1014.6 hPa | - | - | - | - |
| 1777613792 | 26.67° C | 52% | 1014.7 hPa | - | - | - | - |
| 1777612892 | 26.67° C | 52% | 1014.7 hPa | - | - | - | - |
| 1777611992 | 26.67° C | 54% | 1015.3 hPa | - | - | - | - |
| 1777611092 | 26.67° C | 55% | 1015.7 hPa | - | - | - | - |
| 1777610192 | 26.67° C | 57% | 1016 hPa | - | - | - | - |
| 1777609295 | 27.22° C | 67% | 1016.4 hPa | - | - | - | - |
| 1777608390 | 26.67° C | 79% | 1016.7 hPa | - | - | - | - |
| 1777607489 | 26.11° C | 65% | 1016.7 hPa | - | - | - | - |
| 1777606589 | 26.11° C | 48% | 1016.8 hPa | - | - | - | - |
| 1777605689 | 27.22° C | 56% | 1016.8 hPa | - | - | - | - |
| 1777604789 | 27.78° C | 81% | 1017 hPa | - | - | - | - |
| 1777603889 | 27.78° C | 81% | 1017.1 hPa | - | - | - | - |
| 1777602991 | 27.78° C | 81% | 1016.9 hPa | - | - | - | - |
| 1777602122 | 27.22° C | 80% | 1017 hPa | - | - | - | - |
| 1777602090 | 27.22° C | 80% | 1017 hPa | - | - | - | - |
| 1777601190 | 27.22° C | 79% | 1017 hPa | - | - | - | - |
* Rain since midnight (hover to see other rain measurements)
** Current wind speed in m/s (hover to see current wind gust speed)